world map with TJH marked

TJH - Airport

This information may not be accurate or current and is not valid for navigation or flight planning. No warranty of fitness for any purpose is made or implied.

flag of Hyogoflag of Japan

Donate via PayPal

Additional information is available on the NEW Great Circle Mapper

Location
City:  Toyooka, Hyogo, Japan
Name:Tajima Airport
ICAO / IATA:RJBT / TJH

Details
Type:Airport (Aerodrome, Airfield)
Latitude:35°30'46"N (35.512778)
Longitude:134°47'13"E (134.786944)
Datum:WGS 1984
Elevation:584 ft (178 m)
Runways:1
Longest:3937 × 98 ft (1200 × 30 m)

Time
Timezone:UTC+9 (DST+11)
Local Time:

Weather
METAR:RJBT  240700Z 34006KT 300V030 9999 VCSH FEW020 SCT030 BKN040 04/M06 Q1020

Related Locations
Nearby:
Farthest:SUEX: 12230 mi / 19682 km
Montevideo East [Montevideo East UIR], UY

Find:

   beyond  
but within

Other Information
Maps:
Sources:

  


 


Great Circle Mapper   Great Circle Mapper
Great Circle Mapper FAQ   Great Circle Mapper FAQ
  Karl's Home Page
KLSē   KLSē Home
   GC on Facebook
Airlines of the World   Airlines of the World
Donate via PayPal


Copyright © 2004-2019, Karl L. Swartz. All rights reserved.
All trademarks mentioned herein belong to their respective owners.

Please see credits for attribution and copyright information.

Karl Swartz <karl@kls2.com>
  Powered by FreeBSD
Valid HTML 4.01!
Labeled with ICRA
hCard Microformat
Geo Microformat